Location: Newark
(58.8333°N, 23.5833°E)
Time: 17:55:15
(UTC+00:00)

Explorer 7 - Pass Details

Date: 17 November 2019
Orbit: 485 x 680 km, 50.3° (Epoch: 14 December)

Event Time Altitude Azimuth Distance (km) Brightness Sun altitude
Rises 23:04:21 0° 203° (SSW) 2,903 - -49.1°
Reaches altitude 10° 23:07:54 10° 175° (S) 1,953 - -48.9°
Maximum altitude 23:09:51 13° 149° (SSE) 1,752 - -48.8°
Drops below altitude 10° 23:11:46 10° 123° (ESE) 1,901 - -48.7°
Sets 23:15:07 0° 94° (E) 2,751 - -48.6°
